Temp
58 58 58 58 59 59 59 59 59 59 59 60 60 61 61 61 62 55 49 55 60 66 63 56 58 56 55 52 52 46 38 34 35 38 39 46 45 48 48 46 49 50 48 47 51
57 57 57 58 58 59 58 58 59 59 59 60 60 60 61 60 54 50 61 66 67 66 56 54 53 54 49 49 48 43 36 36 41 40 40 43 43 43 45 44 46 46 51 51 49
56 56 57 57 58 58 58 58 58 59 59 59 60 60 60 56 51 49 65 66 66 63 54 53 53 52 47 46 45 42 39 43 43 45 45 43 42 44 41 40 41 41 46 47 45
56 56 56 56 57 58 57 58 58 58 59 60 60 60 60 53 42 52 63 64 65 60 56 54 52 46 42 42 44 42 45 44 47 47 45 42 44 42 42 41 46 44 45 43 43
55 55 55 56 56 57 57 57 58 58 59 60 60 60 54 47 45 58 61 60 58 57 51 50 48 44 41 42 43 42 41 46 45 46 44 46 41 39 41 45 46 46 44 41 40
55 55 55 55 56 56 57 57 58 58 59 60 61 60 50 43 56 56 55 56 55 53 50 50 47 47 45 42 41 41 42 41 44 43 44 42 40 41 41 43 45 44 40 39 39
55 55 55 55 55 56 56 57 58 58 59 60 61 56 48 44 54 54 55 53 53 52 49 49 48 48 44 41 43 41 39 40 42 43 41 40 40 38 40 43 44 42 37 39 39
55 54 54 55 55 56 56 57 58 58 59 60 60 50 41 55 53 55 55 53 55 54 52 52 52 48 44 44 41 37 35 31 40 42 42 41 32 39 42 40 39 37 35 38 38
55 54 54 55 55 55 56 57 57 59 60 60 51 48 40 58 51 53 53 50 51 52 52 56 49 41 41 35 33 33 29 31 35 39 39 39 32 40 42 38 34 33 34 37 37
55 54 54 54 55 56 56 57 58 57 57 57 55 46 48 44 50 52 52 52 49 47 48 46 39 35 33 33 30 31 30 31 27 36 37 35 34 37 38 36 31 32 33 35 36
55 54 54 54 55 56 50 48 47 46 46 40 41 43 45 50 52 50 51 50 48 45 37 39 34 30 31 34 35 34 31 28 29 36 33 28 31 35 36 34 33 32 33 34 36
55 55 54 54 55 55 46 46 44 46 39 45 46 47 48 48 44 47 52 44 42 35 37 36 32 35 38 38 36 34 31 28 32 35 33 30 31 32 35 33 32 33 34 34 34
55 55 54 54 54 48 44 45 46 44 40 41 45 45 45 48 41 43 47 42 39 35 34 34 35 39 38 35 34 31 31 29 30 32 30 29 30 30 33 34 36 35 35 35 34
55 54 54 53 48 43 43 46 46 44 33 36 39 43 46 46 40 48 47 43 39 34 33 34 37 36 35 34 34 31 34 33 32 28 23 28 17 26 28 32 33 33 32 33 33
55 54 54 53 43 43 45 46 45 45 22 37 39 50 46 42 41 43 47 44 36 35 35 32 32 34 34 34 35 33 34 32 31 26 24 26 18 24 28 28 29 31 31 31 33
55 54 53 45 41 42 44 43 45 32 24 31 39 37 38 39 39 41 42 45 42 36 35 33 36 34 34 35 35 36 32 30 27 25 8 22 20 21 24 26 27 30 30 31 31
54 54 49 45 41 43 43 41 27 26 35 30 32 35 34 33 35 36 35 33 32 28 28 32 32 33 36 33 34 33 27 9 10 7 8 21 20 22 26 28 27 27 29 30 31
54 52 48 44 42 43 41 33 20 26 27 34 33 34 32 34 33 33 33 30 32 30 27 25 23 31 34 32 31 29 27 13 5 6 11 23 15 24 28 29 28 28 29 30 29
51 39 39 40 43 41 36 19 27 30 34 32 33 26 27 32 32 32 30 29 33 33 29 25 25 32 34 33 32 29 20 28 8 1 7 16 24 28 29 26 26 26 27 27 28
39 38 38 42 42 38 26 28 28 37 36 35 33 28 24 24 29 29 29 32 33 34 32 30 21 31 32 32 33 30 31 19 12 3 0 11 16 21 25 24 26 24 25 26 27
39 34 37 41 41 31 20 25 33 39 40 36 32 23 28 25 29 26 29 32 33 32 32 30 28 25 29 27 25 24 19 21 21 16 5 1 13 25 26 26 23 22 26 25 26
37 25 38 39 25 14 17 29 39 35 37 35 34 31 27 28 25 27 30 30 34 34 30 32 26 15 21 24 25 26 26 23 11 10 11 9 13 29 26 26 25 24 27 25 26
33 29 38 38 18 17 20 31 34 33 34 33 33 33 31 26 28 27 31 32 33 33 30 30 18 7 17 23 24 24 26 24 12 11 10 5 13 27 27 25 25 22 23 24 26
33 24 26 33 27 25 21 27 28 33 33 35 33 32 29 24 27 22 28 31 32 33 38 35 16 16 19 21 21 22 24 23 16 6 7 14 9 21 23 20 21 21 21 22 24
35 27 27 23 25 25 32 29 32 27 33 34 30 32 31 23 24 23 26 28 31 34 29 27 17 13 11 17 19 21 22 20 15 18 16 16 14 15 13 10 10 20 24 23 23
33 28 26 18 31 29 32 26 31 29 31 29 27 33 33 29 32 24 25 24 27 25 24 23 16 17 11 17 17 16 21 20 21 12 14 14 18 23 22 20 16 18 19 20 17
33 33 37 33 28 29 32 31 35 36 32 34 34 30 29 29 29 29 27 26 27 25 22 23 17 16 10 13 10 11 22 22 16 13 19 14 23 20 14 19 9 15 13 12 12
MSLP
1021.90 1021.88 1021.63 1021.37 1021.17 1020.83 1020.48 1020.38 1020.08 1020.04 1020.00 1019.45 1019.21 1018.85 1018.59 1018.43 1018.25 1018.46 1019.43 1020.00 1019.13 1018.23 1017.74 1017.30 1016.84 1016.89 1016.84 1018.08 1018.83 1019.48 1021.07 1022.63 1022.50 1022.32 1022.29 1022.05 1021.98 1021.97 1022.10 1022.28 1022.11 1022.48 1023.02 1023.72 1023.82
1021.78 1021.87 1021.87 1021.57 1021.13 1020.93 1020.62 1020.36 1020.15 1020.06 1020.00 1019.65 1019.19 1018.90 1018.85 1018.58 1018.85 1019.29 1020.03 1019.44 1018.91 1018.25 1017.99 1017.89 1017.85 1017.73 1018.50 1019.19 1019.61 1020.46 1022.14 1022.54 1022.48 1022.31 1022.23 1022.36 1022.52 1022.68 1022.55 1022.86 1023.02 1023.10 1023.36 1023.79 1024.07
1021.80 1021.91 1021.94 1021.88 1021.20 1020.82 1020.84 1020.33 1020.27 1019.99 1020.15 1019.58 1019.25 1018.95 1018.71 1018.61 1019.10 1020.25 1019.78 1019.30 1018.84 1018.39 1018.34 1018.26 1018.14 1018.33 1019.59 1020.17 1021.02 1021.34 1022.45 1022.71 1022.69 1022.50 1022.44 1022.71 1022.82 1023.00 1023.17 1023.46 1023.79 1024.26 1024.37 1024.61 1024.92
1021.93 1021.80 1021.86 1022.11 1021.28 1021.06 1020.83 1020.66 1020.24 1020.10 1020.14 1019.82 1019.24 1018.99 1018.57 1018.58 1020.46 1020.36 1019.93 1019.38 1018.94 1018.33 1018.32 1018.58 1018.71 1019.45 1020.61 1021.25 1021.64 1022.35 1022.72 1022.66 1022.76 1022.77 1022.68 1022.90 1022.99 1023.49 1023.89 1024.43 1024.51 1024.86 1025.22 1025.72 1026.08
1021.90 1021.96 1021.87 1022.04 1021.34 1021.16 1020.95 1020.74 1020.42 1020.20 1020.10 1019.83 1019.27 1018.99 1018.68 1019.59 1021.15 1020.50 1020.07 1019.59 1019.00 1018.97 1019.34 1019.44 1019.71 1020.24 1021.28 1021.71 1021.94 1022.68 1023.15 1023.13 1023.25 1023.05 1023.19 1023.24 1023.56 1023.93 1024.49 1024.88 1025.06 1025.43 1025.98 1026.65 1026.95
1021.67 1021.83 1021.97 1021.65 1021.37 1021.22 1020.96 1020.84 1020.52 1020.23 1020.11 1019.89 1019.26 1018.93 1019.06 1020.38 1020.97 1020.85 1020.45 1019.84 1019.79 1019.79 1020.11 1019.99 1020.48 1020.58 1021.59 1022.42 1022.69 1023.28 1023.61 1023.89 1023.81 1023.73 1023.75 1023.66 1023.87 1023.93 1024.75 1025.09 1025.48 1026.03 1026.91 1027.50 1027.61
1021.64 1021.64 1021.71 1021.43 1021.23 1021.22 1020.92 1020.85 1020.60 1020.35 1020.10 1019.94 1019.51 1019.05 1020.03 1021.46 1021.09 1020.83 1020.65 1020.52 1020.44 1020.33 1020.51 1020.60 1020.64 1020.90 1021.88 1022.97 1023.50 1023.77 1024.18 1024.30 1024.44 1024.25 1024.25 1024.25 1024.49 1024.81 1025.27 1025.42 1026.07 1026.79 1027.48 1027.78 1028.27
1021.51 1021.68 1021.53 1021.30 1021.24 1021.11 1020.90 1020.74 1020.54 1020.32 1020.18 1019.76 1019.42 1019.64 1020.98 1021.11 1021.02 1020.83 1020.83 1020.71 1020.56 1020.50 1020.72 1020.83 1020.72 1021.46 1022.50 1023.37 1023.94 1024.35 1024.78 1025.46 1025.37 1024.82 1024.46 1024.24 1025.23 1025.46 1025.83 1026.32 1027.06 1027.70 1028.05 1028.27 1028.64
1021.39 1021.60 1021.47 1021.28 1021.18 1021.13 1020.76 1020.61 1020.41 1020.25 1019.95 1019.73 1019.68 1019.99 1021.55 1021.10 1021.25 1021.24 1021.23 1021.36 1021.07 1020.85 1020.93 1020.87 1021.31 1023.02 1023.56 1024.14 1024.98 1025.55 1026.02 1026.21 1026.01 1025.94 1025.91 1025.64 1026.14 1026.48 1026.95 1027.25 1028.04 1028.64 1029.00 1028.86 1028.84
1021.27 1021.45 1021.47 1021.24 1021.12 1020.98 1020.67 1020.55 1020.23 1020.09 1020.06 1019.98 1020.23 1020.82 1021.77 1022.10 1021.88 1021.67 1021.33 1021.41 1021.64 1021.47 1021.59 1021.93 1023.06 1024.21 1025.02 1025.12 1025.86 1026.16 1026.62 1026.74 1026.69 1026.91 1026.42 1026.69 1026.90 1027.46 1027.92 1028.16 1029.17 1029.36 1029.53 1029.36 1029.29
1021.14 1021.50 1021.53 1021.31 1021.08 1020.93 1020.78 1020.69 1021.10 1021.17 1021.30 1021.98 1022.01 1022.09 1022.36 1022.18 1022.02 1021.99 1021.87 1021.84 1021.99 1022.33 1023.22 1023.60 1024.30 1025.59 1025.84 1025.65 1026.04 1026.22 1026.61 1026.91 1027.09 1027.38 1027.45 1027.83 1028.02 1028.22 1028.76 1029.04 1029.48 1029.85 1029.87 1029.86 1029.72
1020.83 1021.15 1021.45 1021.68 1021.27 1020.99 1021.06 1020.99 1021.18 1021.70 1022.39 1022.56 1022.38 1022.40 1022.46 1022.51 1022.51 1022.49 1022.00 1022.47 1022.78 1023.68 1023.94 1024.48 1025.29 1025.71 1025.91 1025.93 1026.30 1026.70 1027.04 1027.51 1027.79 1027.94 1027.99 1028.30 1028.40 1028.72 1029.14 1029.55 1029.85 1030.13 1030.18 1030.40 1030.28
1020.74 1020.99 1021.06 1021.41 1021.66 1021.54 1021.26 1021.37 1021.52 1021.49 1022.20 1023.05 1022.79 1022.77 1022.88 1022.76 1023.18 1023.18 1022.84 1022.96 1023.51 1024.29 1024.67 1025.01 1025.74 1025.59 1025.92 1026.28 1026.69 1027.22 1027.32 1027.83 1028.37 1028.66 1028.83 1029.00 1029.08 1029.31 1029.55 1029.64 1030.02 1030.44 1030.69 1030.63 1030.61
1020.45 1021.11 1021.27 1021.11 1022.09 1021.99 1021.75 1021.42 1021.61 1021.72 1022.65 1023.45 1023.04 1022.91 1023.03 1022.90 1023.53 1023.42 1023.32 1023.54 1023.92 1024.82 1025.23 1025.76 1025.88 1025.81 1026.10 1026.56 1026.82 1027.50 1027.90 1028.55 1029.06 1029.34 1029.99 1030.07 1030.25 1029.81 1029.92 1030.10 1030.61 1031.14 1031.06 1031.08 1030.88
1020.19 1020.51 1021.09 1021.59 1021.49 1022.05 1021.92 1021.59 1021.62 1021.88 1023.32 1023.77 1023.25 1023.03 1023.15 1023.41 1023.90 1023.68 1023.52 1023.43 1024.33 1025.11 1025.52 1026.39 1026.24 1026.20 1026.48 1026.95 1027.09 1027.98 1028.46 1029.37 1030.09 1030.76 1031.16 1031.25 1031.42 1030.31 1030.13 1030.79 1031.48 1031.86 1031.79 1031.64 1031.48
1019.80 1020.32 1021.10 1021.82 1021.67 1021.89 1021.79 1021.80 1021.81 1022.97 1023.68 1023.82 1023.58 1023.49 1023.77 1023.95 1024.11 1024.06 1023.90 1023.89 1024.63 1025.27 1025.97 1026.40 1026.33 1026.49 1026.67 1027.14 1027.42 1028.07 1029.19 1030.38 1031.49 1032.26 1032.97 1032.52 1032.40 1031.33 1031.01 1031.45 1032.04 1032.46 1032.45 1032.32 1031.85
1019.63 1020.11 1021.10 1021.35 1021.61 1021.66 1021.98 1022.43 1023.37 1023.64 1024.17 1024.21 1024.16 1024.14 1024.31 1024.65 1024.66 1024.51 1024.55 1024.86 1025.26 1026.02 1026.82 1026.93 1026.99 1026.88 1026.85 1027.36 1027.75 1028.58 1029.79 1031.78 1033.64 1034.16 1034.54 1033.59 1033.21 1031.32 1031.21 1031.62 1032.30 1032.99 1033.08 1032.79 1032.31
1019.26 1020.00 1020.94 1021.32 1021.34 1021.69 1022.04 1023.35 1023.86 1023.16 1023.77 1024.02 1024.26 1024.70 1025.00 1024.96 1025.25 1025.23 1025.24 1025.54 1025.69 1025.91 1026.77 1027.09 1027.63 1027.41 1027.37 1027.71 1028.16 1029.14 1030.53 1032.33 1034.65 1036.31 1035.77 1034.54 1033.28 1031.54 1031.55 1031.90 1032.43 1032.94 1033.06 1032.88 1032.57
1019.33 1020.50 1021.21 1021.74 1021.29 1021.83 1022.25 1024.17 1022.77 1022.30 1022.43 1023.58 1024.61 1025.09 1025.49 1025.38 1025.48 1025.59 1025.86 1025.79 1025.47 1025.82 1026.22 1026.95 1027.82 1027.98 1027.88 1028.16 1028.81 1029.79 1031.13 1032.53 1034.80 1037.65 1036.97 1035.17 1033.08 1032.34 1031.72 1032.06 1032.49 1032.94 1032.99 1032.74 1032.68
1019.27 1020.52 1021.32 1021.63 1021.36 1021.97 1023.19 1023.38 1022.70 1021.82 1022.08 1022.66 1023.24 1023.95 1025.16 1025.77 1026.01 1025.94 1025.96 1025.18 1025.37 1025.63 1025.97 1026.72 1028.09 1028.67 1028.66 1028.86 1029.46 1030.01 1031.45 1032.97 1034.93 1037.18 1037.70 1035.89 1034.07 1031.78 1031.86 1032.30 1032.68 1032.91 1032.99 1033.26 1033.15
1018.82 1020.20 1021.31 1021.83 1021.85 1022.63 1023.19 1022.80 1022.09 1021.46 1021.33 1022.07 1022.57 1023.93 1024.85 1025.13 1025.63 1025.98 1026.01 1025.45 1025.25 1025.91 1026.25 1026.81 1027.51 1029.78 1029.53 1029.70 1029.86 1030.87 1031.84 1033.46 1034.80 1036.34 1037.50 1036.60 1033.43 1031.02 1031.36 1032.38 1032.91 1033.24 1033.46 1033.55 1033.54
1018.09 1020.36 1021.47 1021.83 1022.56 1023.08 1023.03 1021.43 1020.79 1021.12 1021.35 1021.71 1022.22 1023.17 1024.30 1025.27 1025.74 1026.02 1025.50 1025.69 1025.44 1025.61 1026.53 1027.02 1028.45 1030.37 1030.37 1030.22 1030.27 1030.48 1031.43 1032.78 1035.32 1036.71 1037.13 1036.79 1033.20 1031.48 1031.72 1032.33 1033.03 1033.48 1033.80 1033.71 1033.75
1017.58 1020.29 1021.43 1022.17 1021.91 1022.97 1022.11 1021.24 1020.46 1020.86 1020.84 1021.75 1022.36 1022.63 1023.77 1024.84 1025.60 1025.70 1025.67 1026.13 1026.05 1026.24 1026.30 1027.12 1029.01 1030.97 1031.65 1031.47 1031.00 1030.89 1031.36 1032.65 1034.57 1035.63 1036.50 1036.68 1033.42 1032.16 1032.29 1032.83 1033.40 1033.77 1033.91 1033.93 1034.00
1016.06 1019.81 1021.74 1022.04 1020.49 1020.67 1021.30 1020.62 1020.48 1020.26 1020.42 1020.90 1021.92 1022.77 1023.92 1024.83 1025.48 1025.85 1026.19 1026.62 1026.86 1026.75 1026.90 1027.51 1029.52 1030.47 1030.96 1030.40 1030.21 1031.09 1031.20 1032.37 1033.68 1035.54 1035.89 1034.11 1033.18 1033.11 1033.11 1033.74 1033.98 1034.27 1034.42 1034.23 1034.46
1012.71 1015.39 1016.20 1019.06 1019.39 1019.56 1019.09 1019.01 1019.68 1020.03 1020.49 1020.50 1021.75 1022.02 1022.62 1024.57 1025.52 1025.82 1026.66 1027.31 1027.67 1027.69 1027.99 1028.82 1030.29 1031.50 1031.92 1031.58 1031.06 1030.85 1030.99 1032.14 1033.11 1033.39 1034.32 1032.63 1032.68 1032.34 1033.05 1033.94 1034.59 1034.93 1034.85 1034.79 1035.26
1010.72 1012.64 1015.15 1016.30 1016.46 1018.53 1018.05 1016.95 1017.72 1018.78 1019.21 1020.03 1020.22 1021.00 1022.00 1022.89 1023.24 1025.45 1026.40 1027.81 1027.53 1028.69 1029.04 1029.78 1031.05 1032.07 1033.02 1032.68 1032.35 1031.71 1031.05 1031.69 1032.17 1033.11 1033.06 1032.75 1032.10 1031.67 1032.80 1033.94 1035.04 1035.40 1035.36 1035.82 1036.47
1009.33 1011.30 1010.70 1013.95 1015.64 1016.61 1014.41 1014.44 1014.90 1016.68 1018.33 1018.55 1019.22 1021.19 1022.93 1023.60 1023.68 1024.96 1026.25 1026.99 1027.23 1027.84 1029.43 1030.30 1031.51 1032.98 1033.91 1033.72 1032.99 1031.84 1029.32 1029.79 1030.49 1030.77 1031.35 1032.57 1031.16 1031.84 1033.28 1034.17 1035.18 1035.55 1035.98 1036.65 1037.13
Wind_Speed
4 4 5 6 8 9 9 9 10 10 10 10 10 11 12 15 7 7 9 6 10 17 13 7 6 8 6 6 6 2 7 3 2 3 2 4 5 4 3 4 4 4 4 2 7
4 5 6 7 7 9 9 9 10 11 10 10 9 9 9 8 4 11 7 17 16 13 6 8 7 7 6 6 5 7 5 2 0 3 2 2 4 4 5 6 5 4 4 7 8
3 5 7 7 8 9 10 9 9 10 12 9 8 8 9 3 5 5 16 19 17 10 1 1 1 4 7 5 7 3 5 4 3 2 2 2 3 3 4 5 3 4 7 8 8
2 4 5 8 8 10 9 9 9 9 10 9 8 9 6 2 2 4 18 18 13 8 3 6 7 5 6 5 4 7 4 2 2 4 2 3 2 4 4 4 4 5 5 6 14
1 3 4 7 8 9 9 9 9 7 8 8 9 9 2 8 3 7 16 12 5 5 7 4 7 3 5 4 4 6 2 5 4 5 4 2 4 2 5 6 8 7 10 10 9
3 2 4 6 9 10 10 9 8 7 7 8 10 4 4 6 4 8 9 6 7 6 7 7 3 3 7 5 5 3 4 4 6 4 5 4 3 2 3 4 7 8 9 8 9
3 1 3 6 8 10 10 9 7 6 6 7 10 3 10 3 3 7 7 4 5 3 4 3 2 6 3 4 2 3 6 5 9 7 3 2 6 3 3 4 6 8 7 7 9
4 0 3 5 8 9 9 7 6 6 7 7 5 4 4 3 3 5 7 4 7 5 3 5 5 7 6 4 6 6 6 5 6 10 3 4 2 2 6 8 9 8 7 8 8
5 2 3 4 7 8 7 7 6 7 5 5 5 5 3 6 5 4 5 3 4 3 6 3 7 5 6 5 5 8 4 4 2 4 6 7 3 4 11 9 9 8 8 8 8
7 4 2 4 6 7 7 4 5 3 4 2 2 5 5 2 3 4 3 4 5 3 5 8 7 5 6 5 4 3 5 2 0 7 8 7 6 7 9 11 9 7 7 8 8
8 5 3 4 6 6 4 3 5 5 10 3 0 5 1 4 3 6 4 5 4 8 4 5 9 5 3 4 4 6 5 3 2 1 4 3 6 7 8 8 8 7 7 8 8
10 6 2 5 6 4 1 5 3 3 7 5 3 4 2 1 3 7 6 4 5 3 2 7 5 3 5 6 7 4 4 1 1 3 1 5 6 4 6 4 4 5 7 8 8
11 8 4 3 7 3 2 5 2 0 6 3 2 3 2 4 2 5 4 2 5 5 5 5 5 3 4 4 5 2 5 2 1 3 2 4 4 5 3 3 7 7 5 5 6
12 8 4 0 1 2 1 3 1 1 6 1 2 2 2 2 4 2 3 2 5 5 3 5 1 3 4 4 2 3 2 3 2 2 1 4 4 1 2 8 8 9 9 7 7
14 11 6 2 5 3 2 3 1 3 3 2 1 2 2 4 3 4 2 4 4 4 3 1 2 3 4 2 1 3 3 3 2 3 3 7 5 4 1 7 7 10 10 9 8
16 13 9 1 2 0 4 3 4 9 7 1 2 1 3 3 2 1 3 6 3 5 6 3 1 3 2 2 2 5 5 5 4 2 5 4 3 3 2 2 4 6 9 9 9
18 15 7 4 3 5 3 3 8 5 4 3 3 3 2 2 2 1 2 2 4 6 1 3 2 1 2 3 1 2 4 4 7 7 5 4 3 4 5 4 2 3 7 8 8
20 15 4 1 3 5 4 8 5 4 6 2 3 4 3 4 1 2 4 2 3 3 4 6 3 1 2 1 3 3 3 7 6 2 5 3 7 5 7 6 2 2 5 6 7
20 3 3 2 5 2 7 4 11 8 9 11 4 5 3 3 4 3 5 5 7 9 6 5 1 1 4 2 2 2 4 3 9 2 5 3 5 2 6 3 4 5 4 8 9
5 3 2 3 4 4 7 7 5 3 7 3 9 5 9 5 6 6 8 4 5 5 2 6 6 1 1 1 5 1 5 4 5 2 4 5 7 6 7 2 5 7 9 8 8
4 6 3 2 1 6 6 9 6 5 5 7 6 4 2 9 8 6 5 2 4 5 3 5 5 1 2 4 7 1 2 5 5 5 6 2 8 6 8 6 2 4 5 7 7
5 3 1 1 4 0 5 10 8 6 2 2 4 5 8 6 5 5 9 3 5 8 8 3 6 4 4 2 1 2 6 6 7 6 2 3 10 3 9 7 4 2 4 5 4
7 4 1 2 7 4 3 4 7 7 7 8 7 3 4 8 3 4 4 3 2 5 8 7 1 4 8 6 0 5 5 5 5 4 7 7 8 4 6 4 2 3 4 3 6
7 6 1 4 2 9 8 6 7 1 6 6 6 5 5 3 2 7 4 2 3 1 4 6 3 8 10 5 6 6 7 6 7 5 5 10 4 8 9 3 0 3 2 5 7
4 7 9 14 12 5 9 13 12 8 2 6 2 6 10 6 3 4 3 3 3 2 3 4 5 3 2 3 2 1 5 10 10 10 8 5 10 7 7 6 5 4 4 7 7
10 9 4 3 16 16 15 12 18 6 13 8 7 16 7 9 8 8 9 4 7 2 3 1 2 3 3 4 5 3 6 8 10 3 9 3 15 7 5 7 4 4 4 5 4
3 2 4 14 11 18 19 19 27 17 4 3 14 8 4 1 7 7 7 6 3 10 7 6 8 4 5 4 4 7 15 19 7 5 10 9 12 6 3 6 6 6 5 5 2
Wind_Direction
34 6 9 15 7 10 20 12 15 9 358 1 2 15 12 1 23 37 45 306 321 319 330 296 16 360 36 61 46 86 62 84 117 144 167 351 37 11 297 6 17 36 68 25 1
47 9 357 4 9 5 13 12 10 7 353 351 359 11 2 1 60 59 348 342 334 336 10 27 9 0 46 20 31 68 83 115 196 144 115 48 46 320 32 357 12 13 31 22 15
59 11 356 346 1 10 3 12 3 6 348 355 360 359 349 360 73 341 340 340 335 346 193 345 341 50 61 23 358 53 108 150 45 84 52 41 27 2 356 37 35 347 324 16 13
54 21 359 340 359 360 4 356 3 1 348 353 1 348 342 36 99 279 338 336 338 359 46 16 28 49 70 70 349 90 59 57 72 26 39 34 340 34 30 332 329 26 42 30 24
98 9 360 340 354 354 355 351 353 355 348 350 354 343 73 52 33 311 332 339 10 23 46 36 48 81 91 90 71 69 31 34 358 32 56 69 43 53 25 15 49 59 45 35 26
149 11 345 354 351 350 351 342 347 350 345 346 354 337 62 76 293 328 332 358 21 30 19 36 72 70 84 62 68 101 59 21 15 21 48 49 339 108 27 352 40 50 52 37 29
177 20 341 354 352 346 346 337 334 336 335 342 351 72 59 147 333 329 3 9 1 26 62 37 31 71 101 86 38 82 79 37 13 347 39 313 31 47 339 13 12 43 56 36 28
181 246 345 348 345 341 337 330 323 327 323 340 9 51 90 292 291 18 348 355 9 28 60 23 66 94 63 129 34 60 57 54 344 360 326 72 260 344 356 7 360 27 38 41 22
183 209 329 342 339 331 330 317 313 316 305 330 39 79 74 326 35 318 29 7 330 11 26 68 65 77 32 77 44 16 107 57 315 48 337 47 277 324 360 24 30 51 32 26 8
189 199 276 329 334 328 325 291 312 1 355 345 64 62 9 356 326 333 342 29 38 356 15 40 52 70 34 59 174 125 106 89 34 342 3 2 317 339 6 42 48 44 22 17 13
191 208 263 317 331 335 20 63 34 360 41 78 213 99 42 307 358 1 9 2 22 48 48 11 68 98 117 59 108 110 107 152 250 87 18 359 307 347 359 39 41 29 14 11 12
191 196 263 313 327 337 72 128 146 158 93 16 47 70 77 324 56 349 7 69 55 64 348 29 92 167 117 85 96 91 112 18 307 4 61 0 310 1 20 25 35 19 8 13 358
191 190 186 310 325 9 87 137 75 270 85 7 33 61 320 38 78 336 15 80 84 52 12 114 151 106 123 92 104 51 132 162 101 10 47 336 338 21 8 50 32 15 359 15 349
186 189 192 232 310 271 82 153 75 339 75 299 357 18 347 113 48 314 6 70 44 138 111 90 350 116 102 88 114 128 141 105 123 78 123 24 248 89 14 39 24 1 358 343 345
181 174 175 211 146 157 180 135 125 55 31 34 10 308 11 107 142 353 348 31 110 112 123 170 103 93 80 103 42 134 95 99 102 94 100 352 72 250 353 29 4 352 353 350 346
171 167 149 67 70 279 138 122 58 48 259 214 8 127 76 32 35 359 48 48 122 82 40 101 42 61 123 95 68 134 92 59 55 70 44 257 122 276 53 55 0 342 348 352 348
165 162 156 142 193 155 127 49 50 140 359 234 178 165 115 148 103 94 112 112 147 106 178 25 360 3 86 89 78 99 77 352 1 13 206 341 297 240 114 88 80 306 332 333 341
158 141 116 94 147 145 82 50 113 213 205 130 124 98 185 158 49 100 109 180 229 121 125 148 303 141 9 111 175 73 139 147 205 227 265 354 247 219 144 122 112 316 314 333 337
132 87 115 220 143 80 84 87 198 200 158 150 71 109 249 201 153 136 190 212 209 180 154 143 108 3 52 28 72 196 60 151 102 53 52 248 284 242 172 79 3 327 320 360 352
115 110 167 186 156 74 80 217 222 144 125 161 170 148 171 198 161 178 179 204 183 182 152 197 103 7 92 48 42 94 145 77 3 99 282 281 278 238 200 14 342 349 8 346 343
93 121 189 280 92 54 167 214 204 205 144 162 184 115 226 173 179 180 195 221 160 148 103 152 109 241 86 202 173 92 30 48 108 133 169 261 256 226 150 159 70 350 333 345 346
133 130 190 120 105 280 163 186 168 167 154 132 104 119 166 152 149 207 200 239 174 154 159 192 124 153 198 256 208 218 182 148 129 237 194 142 273 132 137 149 169 6 344 338 360
120 111 338 258 161 227 301 198 175 144 168 162 175 156 142 168 174 192 178 21 200 172 158 188 304 64 352 352 2 208 188 116 113 87 201 138 259 173 148 112 46 43 3 359 38
126 127 342 229 140 148 152 206 179 138 148 145 138 109 118 102 7 172 138 48 347 198 74 90 88 156 186 187 139 189 181 163 132 129 183 228 221 215 217 222 359 21 352 66 53
160 182 175 186 208 190 176 166 176 160 243 163 175 216 163 135 123 151 100 86 24 30 62 124 183 115 296 322 17 238 179 174 195 195 182 250 213 217 209 207 205 218 130 74 51
147 149 102 171 140 175 193 191 182 174 159 212 182 193 207 161 166 169 127 187 194 82 132 23 137 117 347 357 44 303 246 208 221 199 276 274 277 177 128 126 151 167 110 94 49
134 39 120 150 151 177 206 188 198 156 219 191 172 119 144 85 81 103 84 68 117 151 152 143 138 113 256 355 352 313 230 209 184 192 181 212 240 155 173 186 193 174 144 145 173